Time,TemperatureF,DewpointF,PressureIn,WindDirection,WindDirectionDegrees,WindSpeedMPH,WindSpeedGustMPH,Humidity,HourlyPrecipIn,Conditions,Clouds,dailyrainin,SoftwareType,DateUTC
2013-01-20 00:04:00,44.0,20.0,-100.00,South,185,5.0,15.0,38,0.00,,,0.00,,2013-01-20 05:04:00,
2013-01-20 00:12:00,44.0,20.0,-100.00,South,185,5.0,15.0,38,0.00,,,0.00,,2013-01-20 05:12:00,
2013-01-20 00:23:00,44.0,20.0,-100.00,SW,220,3.0,11.0,39,0.00,,,0.00,,2013-01-20 05:23:00,
2013-01-20 00:33:00,44.0,20.0,-100.00,SW,220,3.0,11.0,39,0.00,,,0.00,,2013-01-20 05:33:00,
2013-01-20 00:43:00,44.0,21.0,-100.00,SW,235,5.0,11.0,39,0.00,,,0.00,,2013-01-20 05:43:00,
2013-01-20 00:53:00,44.0,21.0,-100.00,SW,235,5.0,11.0,39,0.00,,,0.00,,2013-01-20 05:53:00,
2013-01-20 01:02:00,44.0,20.0,-100.00,WNW,285,0.0,10.0,39,0.00,,,0.00,,2013-01-20 06:02:00,
2013-01-20 01:12:00,44.0,20.0,-100.00,WNW,285,0.0,10.0,39,0.00,,,0.00,,2013-01-20 06:12:00,
2013-01-20 01:22:00,42.0,20.0,-100.00,WNW,290,0.0,8.0,40,0.00,,,0.00,,2013-01-20 06:22:00,
2013-01-20 01:33:00,42.0,20.0,-100.00,WNW,290,0.0,8.0,40,0.00,,,0.00,,2013-01-20 06:33:00,
2013-01-20 01:43:00,44.0,19.0,-100.00,SSW,195,0.0,3.0,36,0.00,,,0.00,,2013-01-20 06:43:00,
2013-01-20 01:52:00,44.0,19.0,-100.00,SSW,195,0.0,3.0,36,0.00,,,0.00,,2013-01-20 06:52:00,
2013-01-20 02:02:00,45.0,18.0,-100.00,East,100,5.0,18.0,33,0.00,,,0.00,,2013-01-20 07:02:00,
2013-01-20 02:12:00,45.0,18.0,-100.00,East,100,5.0,18.0,33,0.00,,,0.00,,2013-01-20 07:12:00,
2013-01-20 02:22:00,47.0,18.0,-100.00,East,85,10.0,26.0,31,0.00,,,0.00,,2013-01-20 07:22:00,
2013-01-20 02:32:00,47.0,18.0,-100.00,East,85,10.0,26.0,31,0.00,,,0.00,,2013-01-20 07:32:00,
2013-01-20 02:42:00,46.0,17.0,-100.00,East,90,14.0,21.0,31,0.00,,,0.00,,2013-01-20 07:42:00,
2013-01-20 02:52:00,46.0,17.0,-100.00,East,90,14.0,21.0,31,0.00,,,0.00,,2013-01-20 07:52:00,
2013-01-20 03:02:00,46.0,17.0,-100.00,SE,125,12.0,26.0,31,0.00,,,0.00,,2013-01-20 08:02:00,
2013-01-20 03:12:00,46.0,17.0,-100.00,SE,125,12.0,26.0,31,0.00,,,0.00,,2013-01-20 08:12:00,
2013-01-20 03:22:00,46.0,17.0,-100.00,ENE,75,13.0,24.0,31,0.00,,,0.00,,2013-01-20 08:22:00,
2013-01-20 03:32:00,46.0,17.0,-100.00,ENE,75,13.0,24.0,31,0.00,,,0.00,,2013-01-20 08:32:00,
2013-01-20 03:42:00,46.0,18.0,-100.00,ESE,120,16.0,26.0,32,0.00,,,0.00,,2013-01-20 08:42:00,
2013-01-20 03:52:00,46.0,18.0,-100.00,ESE,120,16.0,26.0,32,0.00,,,0.00,,2013-01-20 08:52:00,
2013-01-20 04:02:00,45.0,18.0,-100.00,ESE,120,13.0,29.0,33,0.00,,,0.00,,2013-01-20 09:02:00,
2013-01-20 04:12:00,45.0,18.0,-100.00,ESE,120,13.0,29.0,33,0.00,,,0.00,,2013-01-20 09:12:00,
2013-01-20 04:22:00,45.0,18.0,-100.00,SE,130,14.0,31.0,34,0.00,,,0.00,,2013-01-20 09:22:00,
2013-01-20 04:33:00,45.0,18.0,-100.00,SE,130,14.0,31.0,34,0.00,,,0.00,,2013-01-20 09:33:00,
2013-01-20 04:42:00,44.0,18.0,-100.00,ENE,75,11.0,26.0,35,0.00,,,0.00,,2013-01-20 09:42:00,
2013-01-20 04:52:00,44.0,18.0,-100.00,ENE,75,11.0,26.0,35,0.00,,,0.00,,2013-01-20 09:52:00,
2013-01-20 05:03:00,43.0,19.0,-100.00,ENE,70,13.0,29.0,37,0.00,,,0.00,,2013-01-20 10:03:00,
2013-01-20 05:12:00,43.0,19.0,-100.00,ENE,70,13.0,29.0,37,0.00,,,0.00,,2013-01-20 10:12:00,
2013-01-20 05:23:00,44.0,20.0,-100.00,East,80,14.0,27.0,38,0.00,,,0.00,,2013-01-20 10:23:00,
2013-01-20 05:32:00,44.0,20.0,-100.00,East,80,14.0,27.0,38,0.00,,,0.00,,2013-01-20 10:32:00,
2013-01-20 05:42:00,43.0,20.0,-100.00,ENE,75,14.0,26.0,39,0.00,,,0.00,,2013-01-20 10:42:00,
2013-01-20 05:52:00,43.0,20.0,-100.00,ENE,75,14.0,26.0,39,0.00,,,0.00,,2013-01-20 10:52:00,
2013-01-20 06:03:00,43.0,20.0,-100.00,ENE,70,17.0,26.0,40,0.00,,,0.00,,2013-01-20 11:03:00,
2013-01-20 06:12:00,43.0,20.0,-100.00,ENE,70,17.0,26.0,40,0.00,,,0.00,,2013-01-20 11:12:00,
2013-01-20 06:22:00,42.0,21.0,-100.00,East,85,10.0,26.0,42,0.00,,,0.00,,2013-01-20 11:22:00,
2013-01-20 06:33:00,42.0,21.0,-100.00,East,85,10.0,26.0,42,0.00,,,0.00,,2013-01-20 11:33:00,
2013-01-20 06:43:00,42.0,21.0,-100.00,ESE,115,13.0,24.0,42,0.00,,,0.00,,2013-01-20 11:43:00,
2013-01-20 06:53:00,42.0,21.0,-100.00,ENE,60,14.0,24.0,43,0.00,,,0.00,,2013-01-20 11:53:00,
2013-01-20 07:03:00,42.0,21.0,-100.00,ENE,60,14.0,24.0,43,0.00,,,0.00,,2013-01-20 12:03:00,
2013-01-20 07:13:00,42.0,21.0,-100.00,ENE,60,14.0,24.0,43,0.00,,,0.00,,2013-01-20 12:13:00,
2013-01-20 07:23:00,42.0,22.0,-100.00,East,95,8.0,23.0,44,0.00,,,0.00,,2013-01-20 12:23:00,
2013-01-20 07:33:00,42.0,22.0,-100.00,East,85,9.0,19.0,45,0.00,,,0.00,,2013-01-20 12:33:00,
2013-01-20 07:43:00,42.0,22.0,-100.00,East,85,9.0,19.0,45,0.00,,,0.00,,2013-01-20 12:43:00,
2013-01-20 07:53:00,42.0,22.0,-100.00,East,85,9.0,19.0,45,0.00,,,0.00,,2013-01-20 12:53:00,
2013-01-20 08:03:00,41.0,22.0,-100.00,East,80,11.0,23.0,46,0.00,,,0.00,,2013-01-20 13:03:00,
2013-01-20 08:12:00,41.0,22.0,-100.00,East,80,11.0,23.0,46,0.00,,,0.00,,2013-01-20 13:12:00,
2013-01-20 08:43:00,41.0,22.0,-100.00,NE,45,13.0,24.0,48,0.00,,,0.00,,2013-01-20 13:43:00,
2013-01-20 08:52:00,41.0,22.0,-100.00,NE,45,13.0,24.0,48,0.00,,,0.00,,2013-01-20 13:52:00,
2013-01-20 09:03:00,41.0,23.0,-100.00,NE,55,13.0,19.0,49,0.00,,,0.00,,2013-01-20 14:03:00,
2013-01-20 09:12:00,41.0,23.0,-100.00,NE,55,13.0,19.0,49,0.00,,,0.00,,2013-01-20 14:12:00,
2013-01-20 09:23:00,42.0,24.0,-100.00,ENE,60,13.0,23.0,49,0.00,,,0.00,,2013-01-20 14:23:00,
2013-01-20 09:33:00,42.0,24.0,-100.00,ENE,60,13.0,23.0,49,0.00,,,0.00,,2013-01-20 14:33:00,
2013-01-20 09:43:00,43.0,24.0,-100.00,East,80,15.0,24.0,48,0.00,,,0.00,,2013-01-20 14:43:00,
2013-01-20 09:53:00,43.0,24.0,-100.00,East,80,15.0,24.0,48,0.00,,,0.00,,2013-01-20 14:53:00,
2013-01-20 10:04:00,44.0,25.0,-100.00,ENE,75,11.0,29.0,47,0.00,,,0.00,,2013-01-20 15:04:00,
2013-01-20 10:13:00,44.0,25.0,-100.00,ENE,75,11.0,29.0,47,0.00,,,0.00,,2013-01-20 15:13:00,
2013-01-20 10:23:00,45.0,25.0,-100.00,East,80,14.0,26.0,45,0.00,,,0.00,,2013-01-20 15:23:00,
2013-01-20 10:33:00,45.0,25.0,-100.00,East,80,14.0,26.0,45,0.00,,,0.00,,2013-01-20 15:33:00,
2013-01-20 10:43:00,46.0,26.0,-100.00,East,95,14.0,29.0,45,0.00,,,0.00,,2013-01-20 15:43:00,
2013-01-20 10:53:00,46.0,26.0,-100.00,East,95,14.0,29.0,45,0.00,,,0.00,,2013-01-20 15:53:00,
2013-01-20 11:03:00,46.0,26.0,-100.00,ENE,75,13.0,27.0,44,0.00,,,0.00,,2013-01-20 16:03:00,
2013-01-20 11:12:00,46.0,26.0,-100.00,ENE,75,13.0,27.0,44,0.00,,,0.00,,2013-01-20 16:12:00,
2013-01-20 11:23:00,47.0,26.0,-100.00,ENE,70,11.0,21.0,43,0.00,,,0.00,,2013-01-20 16:23:00,
2013-01-20 11:33:00,47.0,26.0,-100.00,ENE,70,11.0,21.0,43,0.00,,,0.00,,2013-01-20 16:33:00,
2013-01-20 11:43:00,47.0,25.0,-100.00,East,90,14.0,29.0,42,0.00,,,0.00,,2013-01-20 16:43:00,
2013-01-20 11:52:00,47.0,25.0,-100.00,East,90,14.0,29.0,42,0.00,,,0.00,,2013-01-20 16:52:00,
2013-01-20 12:03:00,48.0,25.0,-100.00,ENE,65,15.0,32.0,41,0.00,,,0.00,,2013-01-20 17:03:00,
2013-01-20 12:13:00,48.0,25.0,-100.00,ENE,65,15.0,32.0,41,0.00,,,0.00,,2013-01-20 17:13:00,
2013-01-20 12:23:00,48.0,25.0,-100.00,ENE,75,13.0,24.0,40,0.00,,,0.00,,2013-01-20 17:23:00,
2013-01-20 12:33:00,48.0,25.0,-100.00,ENE,75,13.0,24.0,40,0.00,,,0.00,,2013-01-20 17:33:00,
2013-01-20 12:43:00,49.0,24.0,-100.00,SE,125,14.0,26.0,38,0.00,,,0.00,,2013-01-20 17:43:00,
2013-01-20 12:52:00,49.0,24.0,-100.00,SE,125,14.0,26.0,38,0.00,,,0.00,,2013-01-20 17:52:00,
2013-01-20 13:03:00,49.0,25.0,-100.00,ENE,60,13.0,31.0,38,0.00,,,0.00,,2013-01-20 18:03:00,
2013-01-20 13:13:00,49.0,25.0,-100.00,ENE,60,13.0,31.0,38,0.00,,,0.00,,2013-01-20 18:13:00,
2013-01-20 13:24:00,49.0,24.0,-100.00,East,80,15.0,27.0,37,0.00,,,0.00,,2013-01-20 18:24:00,
2013-01-20 13:33:00,49.0,24.0,-100.00,East,80,15.0,27.0,37,0.00,,,0.00,,2013-01-20 18:33:00,
2013-01-20 13:43:00,50.0,24.0,-100.00,ENE,75,17.0,31.0,37,0.00,,,0.00,,2013-01-20 18:43:00,
2013-01-20 13:53:00,50.0,24.0,-100.00,ENE,75,17.0,31.0,37,0.00,,,0.00,,2013-01-20 18:53:00,
2013-01-20 14:03:00,50.0,23.0,-100.00,East,80,17.0,31.0,34,0.00,,,0.00,,2013-01-20 19:03:00,
2013-01-20 14:12:00,50.0,23.0,-100.00,East,80,17.0,31.0,34,0.00,,,0.00,,2013-01-20 19:12:00,
2013-01-20 14:23:00,51.0,22.0,-100.00,East,90,18.0,27.0,32,0.00,,,0.00,,2013-01-20 19:23:00,
2013-01-20 14:33:00,51.0,22.0,-100.00,East,90,18.0,27.0,32,0.00,,,0.00,,2013-01-20 19:33:00,
2013-01-20 14:52:00,50.0,21.0,-100.00,ENE,75,15.0,29.0,32,0.00,,,0.00,,2013-01-20 19:52:00,
2013-01-20 15:03:00,51.0,22.0,-100.00,East,85,16.0,24.0,32,0.00,,,0.00,,2013-01-20 20:03:00,
2013-01-20 15:12:00,51.0,22.0,-100.00,East,85,16.0,24.0,32,0.00,,,0.00,,2013-01-20 20:12:00,
2013-01-20 15:23:00,50.0,21.0,-100.00,East,85,14.0,26.0,32,0.00,,,0.00,,2013-01-20 20:23:00,
2013-01-20 15:33:00,50.0,21.0,-100.00,East,85,14.0,26.0,32,0.00,,,0.00,,2013-01-20 20:33:00,
2013-01-20 15:42:00,50.0,21.0,-100.00,ENE,70,12.0,29.0,32,0.00,,,0.00,,2013-01-20 20:42:00,
2013-01-20 15:53:00,50.0,21.0,-100.00,ENE,70,12.0,29.0,32,0.00,,,0.00,,2013-01-20 20:53:00,
2013-01-20 16:04:00,51.0,22.0,-100.00,East,80,5.0,21.0,32,0.00,,,0.00,,2013-01-20 21:04:00,
2013-01-20 16:13:00,51.0,22.0,-100.00,East,80,5.0,21.0,32,0.00,,,0.00,,2013-01-20 21:13:00,
2013-01-20 16:23:00,49.0,21.0,-100.00,ENE,65,9.0,21.0,33,0.00,,,0.00,,2013-01-20 21:23:00,
2013-01-20 16:33:00,49.0,21.0,-100.00,ENE,65,9.0,21.0,33,0.00,,,0.00,,2013-01-20 21:33:00,
2013-01-20 16:43:00,49.0,19.0,-100.00,ENE,70,14.0,27.0,31,0.00,,,0.00,,2013-01-20 21:43:00,
2013-01-20 16:53:00,49.0,19.0,-100.00,ENE,70,14.0,27.0,31,0.00,,,0.00,,2013-01-20 21:53:00,
2013-01-20 17:03:00,48.0,19.0,-100.00,ESE,110,11.0,24.0,31,0.00,,,0.00,,2013-01-20 22:03:00,
2013-01-20 17:13:00,48.0,19.0,-100.00,ESE,110,11.0,24.0,31,0.00,,,0.00,,2013-01-20 22:13:00,
2013-01-20 17:23:00,47.0,17.0,-100.00,ENE,75,14.0,27.0,30,0.00,,,0.00,,2013-01-20 22:23:00,
2013-01-20 17:33:00,47.0,17.0,-100.00,ENE,75,14.0,27.0,30,0.00,,,0.00,,2013-01-20 22:33:00,
2013-01-20 17:43:00,46.0,16.0,-100.00,East,85,15.0,26.0,30,0.00,,,0.00,,2013-01-20 22:43:00,
2013-01-20 17:52:00,46.0,16.0,-100.00,East,85,15.0,26.0,30,0.00,,,0.00,,2013-01-20 22:52:00,
2013-01-20 18:03:00,45.0,16.0,-100.00,ENE,75,13.0,26.0,30,0.00,,,0.00,,2013-01-20 23:03:00,
2013-01-20 18:13:00,45.0,16.0,-100.00,ENE,75,13.0,26.0,30,0.00,,,0.00,,2013-01-20 23:13:00,
2013-01-20 18:23:00,44.0,15.0,-100.00,ENE,70,11.0,23.0,30,0.00,,,0.00,,2013-01-20 23:23:00,
2013-01-20 18:33:00,44.0,15.0,-100.00,ENE,70,11.0,23.0,30,0.00,,,0.00,,2013-01-20 23:33:00,
2013-01-20 18:43:00,43.0,14.0,-100.00,East,80,9.0,18.0,31,0.00,,,0.00,,2013-01-20 23:43:00,
2013-01-20 18:53:00,43.0,14.0,-100.00,East,80,9.0,18.0,31,0.00,,,0.00,,2013-01-20 23:53:00,
2013-01-20 19:03:00,42.0,13.0,-100.00,ENE,75,11.0,18.0,31,0.00,,,0.00,,2013-01-21 00:03:00,
2013-01-20 19:13:00,42.0,13.0,-100.00,ENE,75,11.0,18.0,31,0.00,,,0.00,,2013-01-21 00:13:00,
2013-01-20 19:23:00,41.0,12.0,-100.00,ENE,65,11.0,19.0,30,0.00,,,0.00,,2013-01-21 00:23:00,
2013-01-20 19:33:00,41.0,12.0,-100.00,ENE,65,11.0,19.0,30,0.00,,,0.00,,2013-01-21 00:33:00,
2013-01-20 19:43:00,41.0,12.0,-100.00,ENE,75,10.0,18.0,30,0.00,,,0.00,,2013-01-21 00:43:00,
2013-01-20 19:53:00,41.0,12.0,-100.00,ENE,75,10.0,18.0,30,0.00,,,0.00,,2013-01-21 00:53:00,
2013-01-20 20:03:00,40.0,11.0,-100.00,East,85,10.0,19.0,29,0.00,,,0.00,,2013-01-21 01:03:00,
2013-01-20 20:13:00,40.0,11.0,-100.00,East,85,10.0,19.0,29,0.00,,,0.00,,2013-01-21 01:13:00,
2013-01-20 20:23:00,40.0,11.0,-100.00,ENE,75,7.0,19.0,30,0.00,,,0.00,,2013-01-21 01:23:00,
2013-01-20 20:33:00,40.0,11.0,-100.00,ENE,75,7.0,19.0,30,0.00,,,0.00,,2013-01-21 01:33:00,
2013-01-20 20:43:00,40.0,9.0,-100.00,ENE,65,9.0,21.0,28,0.00,,,0.00,,2013-01-21 01:43:00,
2013-01-20 20:53:00,40.0,9.0,-100.00,ENE,65,9.0,21.0,28,0.00,,,0.00,,2013-01-21 01:53:00,
2013-01-20 21:03:00,39.0,7.0,-100.00,ESE,120,8.0,23.0,26,0.00,,,0.00,,2013-01-21 02:03:00,
2013-01-20 21:13:00,39.0,7.0,-100.00,ESE,120,8.0,23.0,26,0.00,,,0.00,,2013-01-21 02:13:00,
2013-01-20 21:23:00,39.0,8.0,-100.00,East,90,4.0,16.0,27,0.00,,,0.00,,2013-01-21 02:23:00,
2013-01-20 21:33:00,39.0,8.0,-100.00,East,90,4.0,16.0,27,0.00,,,0.00,,2013-01-21 02:33:00,
2013-01-20 21:43:00,38.0,8.0,-100.00,East,100,0.0,6.0,28,0.00,,,0.00,,2013-01-21 02:43:00,
2013-01-20 21:53:00,38.0,8.0,-100.00,East,100,0.0,6.0,28,0.00,,,0.00,,2013-01-21 02:53:00,
2013-01-20 22:03:00,37.0,8.0,-100.00,ENE,70,0.0,11.0,29,0.00,,,0.00,,2013-01-21 03:03:00,
2013-01-20 22:13:00,37.0,8.0,-100.00,ENE,70,0.0,11.0,29,0.00,,,0.00,,2013-01-21 03:13:00,
2013-01-20 22:23:00,37.0,8.0,-100.00,ENE,65,2.0,11.0,29,0.00,,,0.00,,2013-01-21 03:23:00,
2013-01-20 22:33:00,37.0,8.0,-100.00,ENE,65,2.0,11.0,29,0.00,,,0.00,,2013-01-21 03:33:00,
2013-01-20 22:43:00,37.0,8.0,-100.00,East,95,6.0,16.0,29,0.00,,,0.00,,2013-01-21 03:43:00,
2013-01-20 22:53:00,37.0,8.0,-100.00,East,95,6.0,16.0,29,0.00,,,0.00,,2013-01-21 03:53:00,
2013-01-20 23:03:00,37.0,7.0,-100.00,ENE,65,3.0,11.0,29,0.00,,,0.00,,2013-01-21 04:03:00,
2013-01-20 23:13:00,37.0,7.0,-100.00,ENE,65,3.0,11.0,29,0.00,,,0.00,,2013-01-21 04:13:00,
2013-01-20 23:23:00,37.0,7.0,-100.00,East,85,7.0,13.0,29,0.00,,,0.00,,2013-01-21 04:23:00,
2013-01-20 23:33:00,37.0,7.0,-100.00,East,85,7.0,13.0,29,0.00,,,0.00,,2013-01-21 04:33:00,
2013-01-20 23:43:00,36.0,7.0,-100.00,NE,45,9.0,16.0,29,0.00,,,0.00,,2013-01-21 04:43:00,
2013-01-20 23:53:00,36.0,7.0,-100.00,NE,45,9.0,16.0,29,0.00,,,0.00,,2013-01-21 04:53:00,